Location: Garden Park
(34.0906°N, 117.2695°W)
Time: 00:01:23
(UTC+00:00)

Hubble Space Telescope - Pass Details

Date: 21 August 2024
Orbit: 505 x 509 km, 28.5° (Epoch: 16 September)

Event Time Altitude Azimuth Distance (km) Brightness Sun altitude
Exits shadow 11:37:30 20° 166° (SSE) 1,223 2.4 -19.5°
Drops below altitude 10° 11:39:22 10° 141° (SE) 1,707 3.4 -19.2°
Sets 11:41:55 0° 127° (SE) 2,591 4.6 -18.7°
